Location: Burtsch�tz
(51.0528°N, 12.1764°E)
Time: 13:13:29
(UTC+00:00)

Resurs 01 Rocket - Pass Details

Date: 29 October 2020
Orbit: 634 x 644 km, 98.0° (Epoch: 28 November)

Event Time Altitude Azimuth Distance (km) Brightness Sun altitude
Exits shadow 19:11:37 10° 356° (N) 2,033 4.4 -31.9°
Drops below altitude 10° 19:11:37 10° 356° (N) 2,034 4.4 -31.9°
Sets 19:13:53 0° 351° (N) 2,947 5.4 -32.2°
